Voltar ao catálogo

SL-8 R/B

AtivoPO
NORAD 18130·ROCKET BODY·🇷🇺 Russia

Lançado Jun 23, 1987 de Plesetsk Cosmodrome

Loading…

Próximas Passagens (próximas 24 horas)

TLE

AtualizadoSource: Space-Track

Época: Sep 14, 2026, 04:54 UTC

1 18130U 87054B   26257.20428476  .00000029  00000-0  14617-4 0  9996
2 18130  82.9268 194.8115 0015442 287.2661  72.6806 13.76992237970371

Acompanhe SL-8 R/B em tempo real com AllMySat

Download on the App Store